Temp_Advection
nan nan nan nan nan nan nan nan nan nan nan nan nan nan nan nan nan nan nan nan nan nan nan nan nan nan nan nan nan nan nan nan nan nan nan nan nan nan nan nan nan nan nan nan nan nan nan nan nan nan nan nan
nan -0 -0 -0 0 0 0 0 1 0 0 0 0 0 0 0 0 0 -0 0 0 0 0 0 0 0 -0 -0 -0 -0 0 0 0 0 0 0 0 0 0 0 0 -0 -0 -0 -0 -0 -0 -0 -1 -1 -0 nan
nan -0 -0 -0 0 0 0 0 0 0 0 0 0 0 0 0 0 -0 0 0 0 0 0 0 0 0 0 -0 -0 -0 -0 0 0 0 0 0 0 0 0 0 0 -0 -0 -0 -0 -0 -0 -0 -0 -0 -0 nan
nan -0 -0 -0 0 0 0 0 0 0 0 0 0 0 0 0 0 -0 0 0 0 0 0 0 0 0 0 0 -0 -0 -0 -0 0 0 0 0 0 0 0 0 0 -0 -0 -0 -0 -0 -0 -0 -0 -0 -0 nan
nan -0 -0 -0 0 0 0 0 0 0 0 0 0 0 0 0 0 -0 0 0 0 0 0 0 0 0 0 0 0 0 -0 -0 -0 0 0 0 0 0 0 0 0 0 0 -0 -0 -0 -0 -0 -0 -0 -0 nan
nan -0 -0 -0 0 0 0 0 0 0 0 0 0 0 0 0 0 -0 0 0 0 0 0 0 0 0 0 0 0 0 0 0 -0 -0 0 0 0 0 0 0 0 0 0 0 0 -0 -0 -0 -0 -0 -0 nan
nan 0 -0 -0 0 0 0 0 0 0 0 0 0 0 0 0 -0 -0 -0 -0 0 0 0 0 0 0 0 0 0 0 0 0 0 -0 -0 0 0 0 0 0 0 0 0 0 -0 -0 -0 -0 -0 -1 -1 nan
nan 0 -0 0 0 0 0 0 0 0 0 0 0 1 0 0 -0 0 -0 -0 0 0 0 0 0 0 0 0 0 0 0 0 0 0 0 0 0 0 0 0 0 0 0 0 -0 -0 -0 -0 -0 -0 -1 nan
nan 0 0 0 0 0 0 0 0 0 0 0 0 0 0 0 0 0 0 -0 0 0 0 0 0 0 0 0 0 0 0 0 0 0 0 0 0 0 0 0 0 0 0 0 0 0 -0 -0 -0 -0 -0 nan
nan 0 0 0 0 0 0 0 0 0 0 0 0 0 0 0 0 0 0 -0 0 0 0 0 0 0 0 0 0 0 0 0 0 0 0 0 0 0 0 0 0 0 0 0 0 0 0 0 -0 -0 -0 nan
nan 0 0 0 0 0 0 0 0 0 0 0 0 0 0 0 0 0 0 0 0 0 0 0 0 0 0 0 0 0 0 0 0 0 0 0 0 0 0 0 0 0 0 0 0 0 0 0 0 -0 -0 nan
nan -0 0 0 0 0 0 0 0 0 0 0 0 0 0 0 0 0 0 0 0 0 0 0 0 0 0 0 0 0 0 0 0 0 0 0 0 -0 0 0 0 0 0 0 0 0 0 0 0 0 0 nan
nan 0 0 0 0 0 0 0 0 0 0 0 0 0 0 0 0 0 0 0 0 0 0 0 0 0 0 0 0 0 0 0 0 0 0 0 0 -0 0 0 0 0 0 0 -0 -0 0 0 0 0 0 nan
nan 0 0 0 0 0 0 0 0 0 0 0 0 0 0 0 0 0 0 0 0 0 0 0 0 0 0 0 0 0 0 0 0 0 0 -0 0 -0 -0 -0 0 0 0 0 0 -0 -0 0 0 -0 0 nan
nan -0 0 0 0 0 0 0 0 0 0 0 0 0 0 0 0 0 0 0 0 0 0 0 0 0 0 0 0 1 0 0 -0 0 0 0 0 0 -0 -0 0 -0 -0 0 0 -0 -0 0 1 0 0 nan
nan -0 -0 0 0 0 0 0 0 0 0 0 0 0 0 0 0 0 0 0 0 0 0 -0 0 0 0 0 1 1 0 0 -0 -0 -0 0 0 0 0 -0 0 0 -0 -0 0 0 -0 -0 0 1 1 nan
nan -0 -0 -0 -0 -0 0 0 0 0 0 0 0 0 0 1 0 0 0 0 0 0 0 -0 -0 0 0 1 1 1 0 0 -0 -1 -1 0 0 0 0 -0 0 0 -0 -0 0 0 0 -0 0 1 0 nan
nan -0 -1 -1 -0 -0 0 -0 -0 0 0 0 0 0 0 0 0 0 0 0 0 0 -0 -0 -0 -0 0 0 1 1 0 0 -0 -1 -1 -0 -0 -0 -0 -0 -0 0 -0 -0 -0 -0 0 -0 -0 0 0 nan
nan 0 -0 -0 -1 -0 -0 -0 -0 -0 0 0 0 0 -0 0 0 0 0 0 0 -0 -0 -1 -1 -0 -0 -0 0 1 1 0 0 -0 -1 -0 -0 -0 -1 -1 -0 -0 -0 -0 -0 -0 -0 -0 -0 0 0 nan
nan 0 -0 -0 -0 -1 -0 -0 -0 -0 -0 -0 -0 -0 -0 -0 0 0 0 0 0 -0 -0 -0 -1 -0 -0 -0 -0 0 0 -0 0 0 -1 -0 -0 -0 -1 -1 -1 -0 -0 -1 -1 -0 -0 0 0 -0 -0 nan
nan 1 1 0 0 -0 -0 -0 -0 -0 -0 -0 -0 -0 -0 -0 0 0 0 1 0 0 0 -0 -1 -1 -0 -0 -0 0 0 -0 0 0 -0 -0 -0 -0 -1 -1 -1 -1 -0 -1 -2 -1 -1 -0 0 0 -0 nan
nan 1 1 1 1 1 1 1 1 0 0 -0 -0 -0 -0 -0 -0 -0 -0 0 0 -0 -0 0 -0 -1 -0 -0 -0 -0 -0 -0 -0 0 -0 -0 0 -0 -1 -1 -1 -2 -1 -0 -1 -2 -2 -1 -0 -0 -0 nan
nan 1 1 1 1 1 1 1 1 1 1 1 1 0 -0 -0 -0 -0 -0 -0 -0 -0 -1 -0 -1 -1 -0 -0 -0 -0 -0 -0 -0 -0 -0 -0 0 0 -0 -1 -1 -1 -1 -1 -2 -3 -2 -1 -1 -1 -0 nan
nan -1 -0 -0 -0 -0 0 1 1 1 1 1 1 1 1 0 0 -0 0 0 -0 -0 -1 -1 -1 -1 -1 -0 -0 -0 -0 0 1 0 0 0 0 0 0 -0 -1 -1 -1 -1 -2 -3 -3 -2 -2 -2 -1 nan
nan -1 -1 -1 -1 -1 -1 -1 -1 -0 0 0 1 1 1 1 1 0 0 0 0 -0 -0 -1 -1 -1 -1 -1 -1 -1 -1 -0 0 1 1 1 1 0 -0 -0 0 -0 -1 -1 -2 -3 -3 -2 -4 -5 -3 nan
nan -1 -1 -1 -1 -1 -1 -1 -1 -1 -0 -0 -0 0 1 1 1 1 0 1 1 0 0 -1 -1 -1 -1 -1 -1 -1 -1 -1 -1 -0 0 0 -0 0 -0 -1 -0 0 -0 -0 0 -1 -2 -3 -4 -3 -2 nan
nan -1 -1 -1 -1 -1 -1 -1 -1 -1 -1 -1 -1 -0 0 0 1 1 0 1 1 0 0 0 -0 -1 -1 -1 -1 -1 -1 -2 -2 -1 -0 0 -1 -1 -1 -2 -1 -0 -2 -2 0 1 -2 -3 -2 -1 -1 nan
nan -1 -1 -1 -1 -1 -1 -1 -1 -1 -1 -1 -1 -1 -1 -1 -0 1 0 0 1 0 0 0 -0 -0 -1 -1 -1 -1 -1 -2 -2 -1 -1 0 1 -0 -1 -1 -1 0 -1 -2 -2 -1 -1 -2 -2 -2 -1 nan
nan -1 -1 -1 -1 -1 -1 -2 -2 -2 -1 -1 -1 -1 -1 -1 -1 -0 0 -0 0 0 -0 0 -0 -0 -0 -1 -1 -1 -1 -1 -1 -1 -1 -1 0 1 0 -1 -0 1 1 0 -1 -1 -2 -2 -2 -1 -0 nan
nan -1 -1 -1 -1 -1 -2 -2 -2 -2 -2 -2 -1 -1 -1 -1 -1 -1 -0 -1 -1 -0 -0 -0 -0 -0 -0 -0 -0 -1 -1 -1 -1 -1 -1 -1 -1 -0 0 -0 -1 -0 1 1 1 -0 -2 -2 -1 -1 -0 nan
nan nan nan nan nan nan nan nan nan nan nan nan nan nan nan nan nan nan nan nan nan nan nan nan nan nan nan nan nan nan nan nan nan nan nan nan nan nan nan nan nan nan nan nan nan nan nan nan nan nan nan nan
Wind_Speed
15 16 15 14 13 13 13 13 14 14 14 14 13 12 12 12 12 13 13 14 14 14 14 14 15 16 16 17 18 19 19 18 18 17 16 16 16 16 16 16 17 18 18 19 19 19 19 18 18 18 17 17
15 16 16 15 14 14 13 14 15 15 15 15 15 14 14 14 14 14 15 15 16 16 15 16 16 17 18 19 19 20 21 21 20 19 19 18 17 17 17 17 17 18 18 19 19 19 19 19 19 19 19 18
16 17 16 15 15 14 14 14 15 16 17 17 17 16 16 16 16 16 17 17 17 17 17 18 18 19 20 20 21 21 22 22 22 22 21 20 19 19 18 18 18 18 19 19 20 20 20 20 20 20 20 19
17 18 17 16 15 15 14 15 16 17 18 18 19 18 18 18 18 18 18 19 19 19 20 20 20 20 21 22 22 23 23 24 24 24 24 23 22 21 20 20 19 20 20 20 20 21 21 21 21 21 21 21
18 19 18 17 16 15 15 15 16 17 19 20 20 20 20 20 20 20 20 21 21 21 22 22 22 22 23 23 24 24 24 25 25 25 25 25 25 23 22 21 21 21 21 21 22 22 22 22 22 23 22 22
18 19 19 18 17 16 16 16 16 18 19 21 21 21 21 22 22 22 22 22 23 23 24 24 24 24 24 25 25 25 25 25 26 26 26 27 27 26 25 24 23 23 23 23 23 23 23 24 24 24 24 24
18 19 19 18 17 17 17 17 17 18 19 21 22 23 23 23 24 24 24 25 24 25 26 26 26 26 26 26 26 26 26 27 27 27 28 28 28 28 27 26 26 25 25 24 24 24 25 25 25 25 25 25
19 20 19 19 18 18 18 18 18 19 20 21 22 23 24 25 25 25 26 27 26 27 28 28 28 27 27 27 27 27 28 28 28 28 29 29 29 29 29 28 28 27 26 26 26 26 26 27 27 27 27 28
19 19 19 19 18 18 18 19 19 19 20 21 22 23 24 26 27 27 28 28 28 29 29 30 30 29 29 29 28 28 28 29 29 29 30 30 30 30 31 30 30 29 28 28 28 27 28 28 28 29 29 29
19 19 19 18 18 18 18 19 19 20 20 21 22 23 24 25 27 28 29 30 30 30 31 31 31 30 30 30 30 30 30 30 30 30 31 31 31 31 32 32 31 31 31 30 30 29 29 29 30 30 30 31
20 19 19 18 18 18 18 18 19 20 20 21 22 23 24 25 26 28 29 30 30 30 31 31 31 31 31 31 31 31 31 31 31 31 32 32 32 32 33 33 33 33 32 32 32 31 31 31 31 31 31 32
20 20 19 18 18 18 18 18 19 19 20 21 22 23 24 25 26 27 29 29 30 30 31 31 31 31 32 32 32 32 32 32 32 32 32 33 33 33 34 34 34 34 34 34 34 33 32 32 32 32 32 32
20 20 20 19 19 19 18 19 19 20 21 22 23 24 24 25 27 28 29 29 30 30 31 32 32 32 33 33 33 32 32 33 32 33 34 34 34 34 34 35 35 35 35 35 35 35 34 34 34 33 33 33
21 21 21 20 19 19 19 19 19 20 21 22 23 23 24 25 26 28 29 30 30 31 32 33 33 34 34 34 34 33 33 33 33 34 34 35 35 35 36 36 36 37 36 36 37 37 35 34 34 35 35 34
21 21 21 21 20 20 20 20 20 21 22 22 23 23 24 25 27 28 30 30 31 32 33 33 34 34 34 34 34 34 33 33 35 35 35 36 36 36 36 37 37 38 38 37 37 38 37 36 35 36 35 34
22 22 22 21 21 21 21 21 21 22 23 23 23 23 24 25 27 28 30 31 31 32 33 33 34 34 35 35 34 34 34 34 35 36 37 37 37 37 37 38 38 39 40 39 38 38 38 38 37 37 36 35
22 22 22 22 22 22 22 22 23 23 24 24 24 24 25 26 27 29 30 31 32 32 33 34 34 35 35 36 35 34 34 35 36 37 38 38 38 38 38 39 39 40 41 40 40 39 40 40 39 39 37 36
22 22 23 23 23 24 24 24 24 25 25 26 25 26 26 27 28 29 30 31 32 33 34 35 35 35 36 36 36 35 35 36 36 37 39 39 39 40 40 41 41 41 42 42 42 41 41 41 41 41 40 38
22 22 23 24 25 26 26 26 27 27 27 27 27 27 28 28 29 29 31 32 33 34 35 36 36 36 37 37 37 36 36 37 37 38 39 39 40 41 41 42 42 42 43 44 43 43 42 43 43 43 41 40
21 23 24 25 25 27 27 28 29 29 30 29 29 29 29 30 30 30 31 33 34 35 35 36 37 37 37 38 39 38 38 38 38 39 39 40 40 42 42 42 43 43 44 46 46 45 44 43 44 45 43 42
21 22 24 25 26 27 28 28 29 30 30 30 30 30 30 30 31 31 32 33 34 35 35 36 37 37 37 39 40 40 39 39 39 39 40 40 40 41 42 42 43 43 45 47 48 47 45 45 46 46 45 44
21 22 23 24 25 26 27 28 28 29 29 30 30 30 31 32 33 33 34 34 34 35 35 35 36 36 37 38 40 40 40 40 40 40 40 40 39 40 42 43 43 44 45 47 49 49 48 47 47 47 47 46
21 22 23 24 25 26 26 27 27 28 29 29 30 31 31 33 34 35 35 36 36 36 36 36 36 36 36 37 39 40 40 40 40 40 41 41 41 41 42 43 43 43 45 47 48 49 49 49 49 49 47 48
21 22 23 24 25 26 26 28 28 28 29 29 29 29 30 31 32 34 35 35 36 36 35 35 35 35 35 35 37 38 39 39 40 41 42 42 42 43 43 43 43 43 44 46 48 50 50 50 49 49 48 49
22 22 22 22 23 24 24 26 26 27 28 29 29 29 30 31 31 32 33 33 33 34 34 34 35 35 35 35 36 37 38 38 39 39 41 42 43 43 43 44 43 43 44 45 46 46 46 46 48 51 50 49
21 22 23 23 23 23 23 24 25 25 26 27 28 29 30 30 31 32 32 33 33 33 34 34 35 35 35 35 35 37 37 38 38 38 39 41 43 43 44 45 44 43 43 42 41 39 41 43 45 43 38 40
21 22 22 23 23 24 24 24 24 25 25 26 27 28 29 30 31 32 33 33 33 34 34 34 35 34 34 34 34 36 37 37 37 37 38 38 38 38 39 40 40 41 40 41 41 35 33 33 32 31 27 26
21 21 22 23 23 24 24 25 26 27 27 28 29 29 30 31 32 33 33 33 33 34 34 33 34 33 33 33 33 34 35 36 36 35 36 36 34 33 33 33 32 31 28 31 34 29 26 26 25 27 22 16
21 22 23 24 25 26 27 29 30 31 31 31 31 32 32 32 33 33 33 33 33 33 32 32 32 32 32 32 32 32 33 33 34 34 34 34 35 33 33 34 34 31 25 22 24 25 27 25 21 23 21 23
23 24 25 26 28 30 31 31 32 33 34 34 34 34 33 33 33 33 32 32 31 31 31 31 31 31 31 31 31 31 31 32 32 33 33 33 34 34 33 34 36 36 32 26 23 24 26 25 24 29 31 31
25 25 26 28 29 31 31 31 31 31 32 34 34 35 34 33 33 33 32 31 31 31 30 30 30 30 30 30 30 30 30 30 31 31 31 31 31 32 32 33 34 35 35 32 28 24 25 27 28 31 32 31
Wind_Direction
304 308 305 299 293 284 274 263 255 253 254 257 262 267 273 277 282 288 294 298 301 303 306 308 310 312 313 314 314 313 311 309 308 307 307 307 307 308 309 310 310 311 311 311 311 311 311 310 310 308 307 305
302 308 305 299 293 285 275 265 256 253 253 256 260 264 268 273 279 285 290 294 296 299 301 303 305 307 309 311 313 313 312 310 308 306 304 303 302 302 303 303 304 304 305 306 306 306 306 305 304 303 302 301
302 310 307 300 293 287 278 267 258 253 253 255 258 262 266 271 277 282 286 290 293 295 298 300 301 303 305 308 310 311 311 310 308 306 303 302 300 299 299 299 299 299 300 300 301 301 301 300 299 299 298 297
302 310 308 300 295 289 280 271 261 255 254 255 257 260 265 270 274 279 284 287 290 293 295 297 299 300 302 304 306 308 308 309 308 305 303 301 298 297 296 296 296 296 296 297 297 298 298 298 297 297 296 295
302 307 307 302 296 291 284 275 266 259 256 255 257 260 264 268 272 276 281 284 287 290 293 294 297 298 300 301 302 304 305 305 305 303 302 300 298 297 296 296 295 295 295 295 296 296 297 297 296 295 294 294
301 304 307 304 298 293 287 280 272 265 260 257 258 260 263 266 270 274 278 282 285 288 290 292 294 296 297 298 299 300 301 301 301 301 301 299 298 297 296 295 294 294 293 293 293 294 294 294 294 293 292 291
300 305 307 304 300 295 290 285 278 272 266 262 260 260 262 265 269 273 277 280 283 286 288 290 292 293 294 295 296 297 298 299 299 300 300 299 298 296 295 293 292 291 291 291 291 292 293 292 291 291 291 290
301 304 306 306 303 297 292 287 283 277 272 267 264 263 263 265 268 272 275 278 282 284 286 289 290 291 293 293 294 296 296 297 298 298 298 297 296 295 293 291 290 289 289 289 290 291 292 292 291 291 291 290
300 303 305 306 302 296 292 288 285 281 277 273 270 268 266 267 269 272 274 277 281 283 286 288 289 291 292 292 293 295 295 295 296 296 296 296 295 294 293 291 290 290 290 290 290 290 290 290 291 290 290 289
299 302 305 305 302 297 293 290 287 282 280 276 274 272 271 271 272 273 275 277 280 282 285 286 288 289 290 291 292 293 293 293 294 295 295 295 294 293 292 292 291 290 290 289 289 289 289 288 289 289 289 288
298 302 304 305 303 299 297 293 288 284 282 279 277 275 274 275 276 276 277 279 280 282 283 284 286 288 289 290 291 292 292 292 293 294 293 293 293 293 292 291 290 290 289 288 288 287 287 287 287 287 287 287
297 301 304 305 304 303 299 293 290 287 283 280 278 278 278 278 278 279 279 280 281 282 283 284 286 287 288 289 290 291 291 292 292 292 292 291 292 292 291 290 289 289 288 288 287 286 286 286 286 285 285 285
298 302 305 307 308 305 300 296 294 290 285 282 280 280 280 280 280 281 281 281 282 283 284 285 287 287 288 289 290 290 290 291 291 291 291 291 290 291 290 290 289 288 287 287 286 286 285 285 285 285 284 284
300 304 307 310 310 307 304 301 297 292 288 286 284 284 283 282 282 282 282 283 284 284 285 287 287 288 288 289 289 290 291 291 291 290 290 290 290 290 290 289 289 288 287 286 285 285 284 284 283 283 283 283
302 305 308 311 311 308 307 304 298 295 293 291 289 288 286 285 283 283 283 284 285 285 287 288 288 289 290 290 291 291 291 291 290 290 289 290 290 290 290 290 289 288 288 286 285 285 284 284 282 281 281 282
302 303 307 310 310 309 308 304 300 299 297 295 293 291 289 287 286 286 286 286 287 288 288 289 290 291 291 291 292 292 292 291 290 290 290 290 290 290 290 290 289 289 288 287 286 285 285 284 282 281 280 280
303 304 306 307 306 306 306 304 302 301 299 297 296 295 295 293 291 291 291 291 291 291 291 291 292 293 293 293 293 293 292 291 290 290 291 291 291 292 291 290 290 289 289 288 287 285 285 284 283 281 280 280
302 304 304 303 303 303 304 303 302 302 301 301 301 300 300 299 298 296 296 295 295 295 294 294 294 294 294 294 294 293 292 290 290 290 291 293 293 293 293 292 291 290 290 289 288 287 286 285 283 282 281 281
300 303 304 303 302 302 302 302 303 304 305 306 306 305 305 305 304 302 300 298 297 296 295 295 295 295 295 295 294 293 292 291 291 291 292 294 294 294 294 294 293 292 291 289 288 287 286 285 284 283 283 282
299 300 302 303 303 302 302 303 303 305 307 308 309 308 308 308 306 305 303 300 298 297 296 296 295 296 296 295 294 294 294 293 293 293 294 295 295 295 295 294 294 293 292 291 289 288 286 285 284 283 283 283
295 296 298 299 300 301 301 302 303 304 305 306 307 306 307 307 306 304 301 299 298 296 295 294 294 295 295 295 295 295 295 295 296 296 296 297 297 296 295 294 293 292 292 292 290 289 288 286 285 284 283 282
293 294 295 296 297 298 299 300 301 301 301 302 303 303 304 303 303 302 301 300 299 297 296 295 295 295 295 295 295 296 295 295 296 296 296 297 297 296 295 294 293 293 293 292 291 290 289 287 285 284 283 282
303 300 299 298 297 296 296 297 297 297 297 298 299 299 299 299 300 300 300 300 300 299 299 298 297 296 296 295 295 294 294 294 295 295 295 295 295 294 293 294 293 293 293 292 292 291 289 287 286 284 283 282
331 325 319 315 311 307 306 304 302 301 299 298 298 297 296 296 297 297 298 299 299 300 300 299 299 298 298 297 296 295 294 294 293 293 294 294 294 294 293 293 294 294 294 293 293 293 291 290 288 285 283 282
353 350 346 342 337 333 329 324 321 318 312 308 305 302 299 297 296 296 296 297 297 298 298 298 298 297 298 298 297 296 295 295 294 293 293 293 294 294 295 294 295 295 295 295 296 296 296 293 291 290 288 286
359 358 357 355 352 349 348 343 339 335 328 320 316 311 305 302 300 298 298 297 297 297 297 297 297 297 297 296 295 295 294 294 293 293 292 293 293 294 295 295 295 295 295 295 296 297 297 295 295 294 291 290
3 1 359 358 356 353 353 349 344 342 337 331 328 323 316 311 307 305 304 302 302 301 301 301 301 300 299 298 297 295 295 294 293 293 293 294 295 294 294 294 295 295 295 294 293 295 293 294 300 296 289 287
5 2 360 359 357 356 355 352 348 345 342 339 336 331 326 321 317 315 314 311 310 309 308 307 306 304 303 301 300 298 298 297 297 297 296 296 296 296 295 294 295 294 293 290 291 292 287 292 295 288 291 286
0 359 357 357 357 357 357 355 352 348 345 342 338 335 332 327 324 322 321 318 317 315 314 313 311 310 308 306 305 303 301 301 301 300 299 298 297 296 295 295 294 292 289 284 284 284 283 288 287 282 296 299
356 356 356 357 357 357 357 355 353 349 345 342 339 337 334 330 328 326 325 324 323 322 321 320 319 317 315 314 312 310 307 305 304 303 302 301 300 299 298 296 295 293 292 287 282 281 281 280 278 282 292 297
353 353 355 356 356 355 355 354 352 349 345 342 339 337 334 331 329 328 328 328 328 328 327 326 325 324 323 321 319 317 315 312 310 309 308 306 304 302 301 300 298 297 296 293 287 284 284 282 279 279 283 287
Height
1552 1551 1550 1549 1548 1548 1547 1546 1546 1546 1546 1546 1545 1545 1544 1543 1543 1542 1541 1541 1540 1539 1538 1537 1536 1535 1534 1532 1531 1530 1529 1528 1526 1525 1524 1523 1521 1520 1519 1518 1516 1515 1514 1513 1512 1511 1509 1508 1507 1506 1504 1503
1551 1550 1549 1548 1548 1547 1546 1546 1545 1545 1545 1545 1545 1544 1543 1543 1542 1541 1541 1540 1539 1538 1537 1536 1535 1534 1533 1532 1530 1529 1528 1527 1526 1524 1523 1522 1520 1519 1518 1516 1515 1514 1513 1511 1510 1509 1508 1507 1506 1504 1503 1502
1550 1550 1549 1548 1547 1546 1545 1545 1544 1544 1544 1544 1543 1543 1542 1542 1541 1540 1539 1539 1538 1537 1536 1535 1534 1533 1531 1530 1529 1528 1527 1526 1524 1523 1522 1521 1519 1518 1516 1515 1514 1512 1511 1510 1508 1507 1506 1505 1504 1503 1501 1500
1549 1549 1548 1547 1546 1545 1544 1544 1543 1543 1543 1543 1542 1542 1541 1540 1540 1539 1538 1537 1536 1535 1534 1533 1532 1531 1530 1529 1528 1527 1525 1524 1523 1522 1521 1519 1518 1517 1515 1514 1513 1511 1510 1508 1507 1505 1504 1503 1502 1500 1499 1498
1548 1547 1546 1545 1545 1544 1543 1542 1542 1541 1541 1541 1540 1540 1539 1539 1538 1537 1536 1535 1534 1533 1532 1531 1530 1529 1528 1527 1526 1525 1523 1522 1521 1520 1519 1518 1516 1515 1514 1512 1511 1509 1508 1507 1505 1504 1502 1501 1500 1498 1497 1496
1547 1546 1545 1544 1543 1542 1542 1541 1540 1540 1539 1539 1538 1538 1537 1537 1536 1535 1534 1534 1532 1532 1530 1529 1528 1527 1526 1525 1523 1522 1521 1520 1519 1518 1517 1515 1514 1513 1512 1510 1509 1507 1506 1505 1503 1502 1501 1499 1498 1496 1495 1494
1546 1545 1544 1543 1542 1541 1540 1539 1538 1538 1537 1537 1536 1536 1536 1535 1534 1534 1533 1531 1530 1529 1528 1527 1526 1525 1524 1522 1521 1520 1519 1518 1517 1516 1514 1513 1512 1511 1509 1508 1507 1505 1504 1502 1501 1500 1499 1497 1496 1495 1493 1492
1544 1543 1542 1541 1540 1539 1538 1537 1537 1536 1536 1535 1535 1534 1534 1533 1532 1532 1531 1529 1528 1527 1526 1525 1524 1523 1521 1520 1519 1518 1516 1515 1514 1513 1512 1511 1510 1508 1507 1506 1504 1503 1501 1500 1499 1497 1496 1495 1494 1492 1491 1489
1542 1542 1540 1539 1538 1537 1536 1535 1535 1534 1534 1533 1533 1532 1531 1531 1530 1529 1528 1527 1526 1525 1524 1523 1521 1520 1519 1518 1516 1515 1514 1513 1512 1511 1509 1508 1507 1505 1504 1503 1501 1500 1498 1497 1496 1494 1493 1492 1491 1489 1488 1487
1541 1540 1539 1538 1537 1535 1535 1534 1533 1533 1532 1531 1530 1530 1529 1528 1527 1527 1526 1525 1524 1523 1522 1520 1519 1518 1517 1515 1514 1513 1512 1510 1509 1508 1506 1505 1503 1502 1501 1499 1498 1497 1495 1494 1492 1491 1490 1489 1488 1486 1485 1483
1539 1538 1537 1536 1535 1534 1533 1532 1532 1531 1530 1529 1528 1527 1527 1526 1525 1524 1523 1522 1521 1520 1519 1518 1517 1516 1514 1513 1512 1510 1509 1507 1506 1504 1503 1501 1500 1499 1497 1496 1495 1493 1492 1491 1489 1488 1486 1485 1484 1483 1481 1480
1538 1537 1536 1535 1534 1533 1532 1531 1530 1529 1528 1527 1526 1525 1525 1524 1523 1522 1521 1520 1519 1518 1517 1515 1514 1513 1511 1510 1508 1507 1505 1504 1502 1501 1499 1498 1496 1495 1494 1492 1491 1490 1489 1487 1486 1484 1483 1482 1480 1479 1478 1477
1536 1535 1534 1534 1533 1532 1530 1529 1529 1528 1527 1525 1525 1524 1523 1522 1521 1519 1518 1517 1516 1515 1514 1512 1511 1510 1508 1507 1505 1504 1502 1501 1499 1498 1496 1494 1493 1492 1490 1489 1487 1486 1485 1484 1482 1481 1480 1478 1477 1475 1474 1473
1534 1534 1533 1532 1531 1530 1529 1528 1527 1526 1525 1524 1523 1522 1521 1520 1519 1517 1516 1515 1514 1512 1511 1509 1508 1507 1505 1503 1502 1501 1499 1498 1496 1494 1493 1491 1490 1488 1487 1485 1484 1482 1481 1480 1478 1476 1476 1474 1473 1471 1469 1469
1533 1532 1531 1531 1530 1529 1528 1527 1525 1524 1523 1522 1521 1520 1519 1518 1517 1515 1514 1513 1511 1510 1508 1507 1505 1504 1502 1500 1499 1498 1496 1495 1493 1491 1490 1488 1486 1485 1483 1482 1480 1478 1477 1476 1474 1472 1471 1470 1469 1467 1465 1464
1531 1531 1530 1529 1528 1527 1526 1525 1524 1523 1521 1520 1519 1519 1517 1516 1515 1513 1512 1510 1509 1508 1506 1504 1502 1501 1499 1498 1497 1495 1494 1492 1490 1488 1486 1485 1483 1482 1480 1478 1476 1474 1472 1471 1470 1468 1466 1465 1464 1462 1461 1460
1530 1529 1528 1527 1526 1525 1524 1523 1522 1521 1520 1519 1518 1517 1515 1514 1513 1511 1510 1508 1506 1505 1503 1502 1500 1498 1497 1495 1494 1493 1491 1489 1487 1485 1483 1481 1480 1478 1476 1474 1473 1471 1468 1467 1466 1464 1462 1461 1459 1458 1457 1456
1528 1527 1526 1525 1524 1523 1523 1522 1520 1519 1518 1517 1516 1515 1513 1512 1510 1509 1507 1506 1504 1503 1501 1499 1497 1496 1494 1492 1491 1490 1488 1486 1484 1482 1480 1479 1476 1474 1473 1471 1470 1467 1465 1463 1461 1460 1459 1456 1455 1453 1452 1451
1525 1525 1524 1523 1522 1521 1520 1520 1518 1517 1516 1515 1514 1512 1511 1509 1508 1507 1505 1504 1502 1500 1498 1496 1495 1493 1491 1489 1488 1486 1485 1483 1481 1479 1477 1476 1473 1471 1469 1467 1466 1464 1461 1459 1457 1456 1455 1453 1451 1449 1448 1447
1523 1522 1521 1521 1520 1519 1518 1517 1516 1515 1514 1512 1511 1510 1508 1507 1506 1504 1503 1501 1499 1498 1496 1494 1492 1490 1488 1486 1484 1483 1481 1479 1478 1476 1473 1472 1470 1467 1465 1464 1462 1460 1457 1454 1453 1452 1451 1449 1447 1445 1444 1443
1520 1519 1519 1518 1517 1516 1515 1514 1513 1512 1511 1509 1508 1507 1506 1504 1502 1501 1499 1498 1496 1494 1493 1491 1488 1487 1485 1483 1481 1479 1477 1476 1474 1472 1469 1468 1466 1463 1461 1459 1457 1456 1454 1450 1448 1447 1446 1445 1443 1441 1440 1439
1517 1516 1515 1515 1514 1513 1512 1511 1510 1509 1507 1506 1505 1504 1502 1501 1499 1497 1496 1494 1492 1490 1489 1487 1485 1483 1482 1480 1477 1475 1473 1472 1470 1468 1465 1463 1462 1460 1456 1454 1453 1451 1449 1446 1443 1441 1441 1440 1438 1436 1436 1434
1516 1514 1513 1512 1511 1510 1509 1507 1506 1505 1504 1503 1502 1500 1499 1497 1495 1493 1491 1490 1488 1486 1484 1483 1481 1479 1478 1476 1473 1471 1469 1468 1466 1463 1461 1458 1456 1455 1453 1450 1448 1447 1445 1441 1438 1436 1435 1434 1432 1432 1431 1429
1515 1514 1512 1511 1510 1508 1507 1505 1504 1503 1501 1500 1498 1497 1495 1492 1491 1489 1487 1485 1483 1481 1480 1478 1477 1475 1474 1472 1469 1467 1465 1463 1462 1459 1457 1454 1451 1450 1448 1446 1444 1443 1440 1436 1433 1430 1428 1427 1425 1425 1425 1424
1515 1513 1512 1510 1509 1508 1507 1504 1503 1502 1499 1497 1495 1494 1491 1489 1486 1484 1482 1481 1479 1477 1475 1474 1472 1471 1469 1467 1465 1462 1461 1459 1458 1456 1454 1451 1448 1446 1443 1441 1440 1439 1436 1433 1429 1425 1422 1420 1418 1417 1417 1416
1514 1513 1512 1510 1509 1507 1506 1504 1502 1501 1498 1496 1494 1492 1489 1486 1483 1481 1479 1477 1475 1473 1471 1469 1468 1466 1464 1463 1461 1458 1456 1455 1454 1452 1450 1447 1444 1442 1439 1436 1436 1435 1433 1431 1427 1423 1418 1413 1412 1411 1410 1409
1515 1513 1512 1510 1508 1507 1506 1504 1501 1500 1497 1495 1493 1490 1487 1484 1481 1479 1477 1474 1472 1470 1468 1466 1464 1462 1460 1459 1457 1454 1452 1450 1449 1448 1446 1444 1440 1438 1435 1432 1431 1430 1429 1427 1425 1422 1417 1411 1408 1405 1404 1404
1514 1513 1511 1510 1508 1507 1505 1503 1500 1498 1496 1494 1491 1488 1485 1482 1479 1476 1474 1471 1469 1467 1465 1463 1461 1458 1457 1455 1453 1451 1448 1446 1445 1444 1442 1440 1438 1435 1431 1429 1428 1427 1426 1424 1423 1421 1415 1411 1408 1401 1400 1400
1513 1512 1510 1508 1506 1505 1503 1501 1499 1496 1495 1492 1490 1486 1483 1480 1476 1474 1472 1469 1466 1464 1461 1459 1457 1455 1453 1451 1450 1448 1445 1443 1441 1440 1438 1436 1434 1432 1429 1426 1423 1422 1422 1421 1420 1419 1415 1411 1407 1400 1398 1396
1512 1510 1508 1506 1504 1502 1501 1499 1497 1494 1492 1490 1488 1485 1482 1478 1475 1472 1469 1467 1464 1461 1459 1456 1454 1452 1450 1448 1446 1444 1442 1440 1438 1436 1434 1433 1431 1429 1427 1423 1419 1417 1417 1417 1415 1414 1413 1411 1407 1400 1398 1395
1511 1509 1507 1505 1503 1501 1499 1498 1496 1494 1491 1488 1486 1483 1481 1478 1474 1471 1468 1465 1462 1459 1456 1454 1452 1449 1447 1445 1443 1440 1438 1436 1434 1432 1430 1429 1427 1425 1423 1421 1417 1414 1412 1412 1411 1409 1408 1406 1404 1401 1399 1396